Baku, Azerbaijan

11:22 AM +04 on December 15, 2018 (GMT +0400)
Bina

Weather History for UBBB - March, 2018

Change the Weather History Date:

Friday, March 9, 2018

  Actual Average Record
Temperature  
Mean Temperature 44 °F -  
Max Temperature 46 °F - - ()
Min Temperature 42 °F - - ()
Degree Days  
Heating Degree Days 21    
Moisture  
Dew Point 43 °F    
Average Humidity 93    
Maximum Humidity 100    
Minimum Humidity 84    
Precipitation  
Precipitation 0.00 in - - ()
Sea Level Pressure  
Sea Level Pressure 29.60 in    
Wind  
Wind Speed 14 mph ()    
Max Wind Speed 36 mph    
Max Gust Speed 44 mph    
Visibility 5.5 miles    
Events Rain    
T = Trace of Precipitation, MM = Missing Value Source: Averaged Metar Reports

Daily Weather History Graph

Daily Weather History Graph

Search for Another Location

Airport or City:

Astronomy

Mar. 09, 2018 Rise Set
Actual Time 7:01 AM +04 6:39 PM +04
Civil Twilight 6:34 AM +04 7:06 PM +04
Nautical Twilight 6:02 AM +04 7:38 PM +04
Astronomical Twilight 5:31 AM +04 8:10 PM +04
Moon 1:20 AM +04 (3/9) 11:30 AM +04 (3/9)
Length of Visible Light 12h 32m
Length of Day
11h 38m
Waning Gibbous, 52% of the Moon is Illuminated
Mar 9
Waning Gibbous
Mar 9
Last Quarter
Mar 17
New
Mar 24
First Quarter
Mar 31
Full

Hourly Weather History & Observations

Time (+04) Temp. Windchill Dew Point Humidity Pressure Visibility Wind Dir Wind Speed Gust Speed Precip Events Conditions
12:00 AM 42.8 °F 37.5 °F 41.0 °F 93% 29.65 in 6.2 mi NW 9.2 mph - N/A   Mostly Cloudy
12:30 AM 42.8 °F 37.5 °F 41.0 °F 93% 29.65 in 6.2 mi NW 9.2 mph - N/A   Mostly Cloudy
1:00 AM 43 °F - 41 °F 89% 29.64 in 6 mi WNW 8.9 mph - -   Overcast
1:00 AM 42.8 °F 37.0 °F 42.8 °F 100% 29.65 in 6.2 mi NW 10.4 mph - N/A   Mostly Cloudy
1:30 AM 42.8 °F 37.5 °F 42.8 °F 100% 29.62 in 6.2 mi NW 9.2 mph - N/A   Mostly Cloudy
2:00 AM 42.8 °F 37.0 °F 42.8 °F 100% 29.62 in 6.2 mi NNW 10.4 mph - N/A   Mostly Cloudy
3:00 AM 42.8 °F 36.6 °F 41.0 °F 93% 29.59 in 6.2 mi NNW 11.5 mph - N/A   Mostly Cloudy
3:30 AM 42.8 °F 35.8 °F 41.0 °F 93% 29.56 in 6.2 mi NW 13.8 mph - N/A   Mostly Cloudy
4:00 AM 43 °F - 40 °F 87% 29.57 in 6 mi NW 6.7 mph - -   Overcast
4:00 AM 42.8 °F 37.0 °F 41.0 °F 93% 29.56 in 6.2 mi NNW 10.4 mph - N/A   Mostly Cloudy
4:30 AM 42.8 °F 37.5 °F 41.0 °F 93% 29.59 in 6.2 mi NNW 9.2 mph - N/A   Mostly Cloudy
5:00 AM 42.8 °F 36.6 °F 41.0 °F 93% 29.59 in 6.2 mi NNW 11.5 mph - N/A   Mostly Cloudy
5:30 AM 42.8 °F 37.0 °F 42.8 °F 100% 29.59 in 5.0 mi NNW 10.4 mph - N/A   Mostly Cloudy
6:00 AM 42.8 °F 37.0 °F 41.0 °F 93% 29.56 in 5.0 mi NNW 10.4 mph - N/A   Mostly Cloudy
6:30 AM 42.8 °F 37.5 °F 42.8 °F 100% 29.59 in 5.0 mi NNW 9.2 mph - N/A   Mostly Cloudy
7:00 AM 43 °F - 41 °F 91% 29.57 in 6 mi WNW 6.7 mph - -   Overcast
7:00 AM 42.8 °F 37.0 °F 42.8 °F 100% 29.56 in 5.0 mi NNW 10.4 mph - N/A   Overcast
7:30 AM 42.8 °F 36.2 °F 42.8 °F 100% 29.56 in 4.3 mi NNW 12.7 mph - N/A   Overcast
8:00 AM 42.8 °F 35.8 °F 42.8 °F 100% 29.56 in 5.0 mi NW 13.8 mph - N/A   Overcast
8:30 AM 44.6 °F 37.8 °F 42.8 °F 93% 29.56 in 5.0 mi NW 15.0 mph - N/A   Overcast
9:00 AM 44.6 °F 38.1 °F 42.8 °F 93% 29.56 in 5.0 mi NW 13.8 mph - N/A   Light Drizzle
9:30 AM 44.6 °F 38.1 °F 42.8 °F 93% 29.56 in 3.7 mi NNW 13.8 mph - N/A   Light Drizzle
10:00 AM 44 °F - 42 °F 91% 29.57 in 2 mi NW 15.7 mph - -   Mist
10:00 AM 44.6 °F 38.1 °F 42.8 °F 93% 29.56 in 5.0 mi NW 13.8 mph - N/A   Light Drizzle
10:30 AM 44.6 °F 38.1 °F 42.8 °F 93% 29.56 in 6.2 mi NNW 13.8 mph - N/A   Overcast
11:00 AM 44.6 °F 37.8 °F 42.8 °F 93% 29.56 in 6.2 mi NNW 15.0 mph - N/A   Overcast
11:30 AM 44.6 °F 36.9 °F 42.8 °F 93% 29.56 in 6.2 mi NNW 18.4 mph - N/A   Overcast
12:00 PM 44.6 °F 36.1 °F 42.8 °F 93% 29.53 in 6.2 mi NNW 21.9 mph - N/A   Light Drizzle
12:30 PM 44.6 °F 35.9 °F 42.8 °F 93% 29.53 in 6.2 mi NW 23.0 mph - N/A Rain Light Rain
1:00 PM 45 °F - 43 °F 88% 29.55 in 2 mi NW 17.9 mph - -   Mist
1:00 PM 46.4 °F 38.7 °F 44.6 °F 93% 29.53 in 5.0 mi NNW 20.7 mph - N/A Rain Light Rain
1:30 PM 46.4 °F 38.3 °F 44.6 °F 93% 29.50 in 4.3 mi NNW 23.0 mph - N/A Rain Light Rain
2:00 PM 46.4 °F 38.5 °F 44.6 °F 93% 29.53 in 4.3 mi NNW 21.9 mph - N/A   Overcast
2:30 PM 46.4 °F 38.3 °F 44.6 °F 93% 29.53 in 3.7 mi NNW 23.0 mph 34.5 mph N/A   Overcast
3:00 PM 46.4 °F 37.2 °F 44.6 °F 93% 29.53 in 2.5 mi NNW 29.9 mph - N/A   Overcast
3:30 PM 46.4 °F 38.1 °F 44.6 °F 93% 29.53 in 5.0 mi NNW 24.2 mph 35.7 mph N/A Rain Light Rain
4:00 PM 46 °F - 44 °F 90% 29.58 in 6 mi NW 26.8 mph - -   Overcast
5:00 PM 46.4 °F 37.4 °F 44.6 °F 93% 29.59 in 6.2 mi NNW 28.8 mph 40.3 mph N/A   Overcast
5:30 PM 46.4 °F 37.7 °F 44.6 °F 93% 29.59 in 6.2 mi NNW 26.5 mph 38.0 mph N/A   Overcast
6:00 PM 46.4 °F 37.4 °F 44.6 °F 93% 29.62 in 6.2 mi NNW 28.8 mph 40.3 mph N/A   Overcast
6:30 PM 46.4 °F 36.9 °F 44.6 °F 93% 29.65 in 6.2 mi NW 32.2 mph 43.7 mph N/A   Mostly Cloudy
7:00 PM 46 °F - 43 °F 84% 29.65 in 6 mi West 35.8 mph - -   Overcast
7:00 PM 46.4 °F 37.4 °F 42.8 °F 87% 29.65 in 6.2 mi NNW 28.8 mph 41.4 mph N/A   Mostly Cloudy
7:30 PM 46.4 °F 37.5 °F 42.8 °F 87% 29.65 in 6.2 mi NNW 27.6 mph 39.1 mph N/A   Mostly Cloudy
8:00 PM 46.4 °F 37.9 °F 42.8 °F 87% 29.68 in 6.2 mi NW 25.3 mph 38.0 mph N/A   Mostly Cloudy
8:30 PM 46.4 °F 37.5 °F 44.6 °F 93% 29.68 in 6.2 mi NW 27.6 mph 39.1 mph N/A Rain Light Rain Showers
9:00 PM 46.4 °F 37.9 °F 44.6 °F 93% 29.71 in 6.2 mi NW 25.3 mph 36.8 mph N/A Rain Light Rain Showers
9:30 PM 46.4 °F 37.5 °F 44.6 °F 93% 29.71 in 6.2 mi NW 27.6 mph 41.4 mph N/A   Overcast
10:00 PM 45 °F - 43 °F 88% 29.72 in 6 mi West 35.8 mph - - Rain Light Rain
10:00 PM 46.4 °F 37.5 °F 42.8 °F 87% 29.71 in 6.2 mi NW 27.6 mph 39.1 mph N/A   Overcast
10:30 PM 46.4 °F 37.4 °F 42.8 °F 87% 29.71 in 6.2 mi NW 28.8 mph 43.7 mph N/A   Overcast
11:00 PM 46.4 °F 37.5 °F 42.8 °F 87% 29.74 in 6.2 mi NW 27.6 mph 39.1 mph N/A   Overcast
11:30 PM 46.4 °F 37.2 °F 42.8 °F 87% 29.74 in 6.2 mi NW 29.9 mph 41.4 mph N/A   Overcast